| time (UTC) | temp F | wind direction | speed MPH | gust MPH | rain 1hr in | rain 24hr in | rain mn in | humidity % | barometer mb |
| 20260504172537 | 78 | 225 | 7.0 | 13.0 | 0.00 | 0.00 | 0.00 | 32 | 1012.4 |
| 20260504171515 | 77 | 248 | 8.0 | 14.0 | 0.00 | 0.00 | 0.00 | 33 | 1012.6 |
| 20260504170517 | 77 | 248 | 9.0 | 16.0 | 0.00 | 0.00 | 0.00 | 32 | 1012.3 |
| 20260504150517 | 73 | 270 | 3.0 | 7.0 | 0.00 | 0.00 | 0.00 | 41 | 1012.2 |
| 20260504140537 | 70 | 248 | 2.0 | 3.0 | 0.00 | 0.00 | 0.00 | 45 | 1011.6 |
| 20260504130516 | 0 | 0.0 | 0.0 | 0.00 | 0.00 | 0.00 | |||
| 20260504081037 | 73 | 248 | 3.0 | 7.0 | 0.00 | 0.00 | 0.00 | 41 | 1010.4 |
| 20260504070111 | 72 | 0.0 | 0.0 | 0.00 | 0.00 | 0.00 | 37 | 1010.2 | |
| 20260504050515 | 77 | 270 | 7.0 | 11.0 | 0.00 | 0.00 | 0.00 | 29 | 1010.1 |
| 20260504045537 | 77 | 270 | 9.0 | 13.0 | 0.00 | 0.00 | 0.00 | 28 | 1010.4 |
| 20260504044516 | 77 | 270 | 9.0 | 15.0 | 0.00 | 0.00 | 0.00 | 27 | 1010.3 |
| 20260504043517 | 78 | 270 | 11.0 | 15.0 | 0.00 | 0.00 | 0.00 | 27 | 1010.1 |
| 20260504042519 | 78 | 270 | 11.0 | 15.0 | 0.00 | 0.00 | 0.00 | 26 | 1010.0 |
| 20260504041521 | 78 | 270 | 11.0 | 16.0 | 0.00 | 0.00 | 0.00 | 26 | 1009.8 |
| 20260504040536 | 79 | 248 | 12.0 | 18.0 | 0.00 | 0.00 | 0.00 | 25 | 1009.6 |
| 20260504035516 | 79 | 248 | 7.0 | 12.0 | 0.00 | 0.00 | 0.00 | 23 | 1009.6 |
| 20260504034516 | 79 | 248 | 7.0 | 12.0 | 0.00 | 0.00 | 0.00 | 22 | 1009.1 |
| 20260504033516 | 80 | 248 | 8.0 | 14.0 | 0.00 | 0.00 | 0.00 | 22 | 1008.9 |
| 20260504032515 | 80 | 248 | 7.0 | 11.0 | 0.00 | 0.00 | 0.00 | 21 | 1008.8 |
| 20260504031536 | 81 | 248 | 8.0 | 12.0 | 0.00 | 0.00 | 0.00 | 20 | 1008.7 |
| 20260504030516 | 81 | 248 | 10.0 | 14.0 | 0.00 | 0.00 | 0.00 | 20 | 1008.5 |
| 20260504025515 | 81 | 248 | 11.0 | 16.0 | 0.00 | 0.00 | 0.00 | 20 | 1008.3 |
| 20260504024516 | 82 | 248 | 10.0 | 15.0 | 0.00 | 0.00 | 0.00 | 20 | 1008.1 |
| 20260504023515 | 82 | 248 | 10.0 | 16.0 | 0.00 | 0.00 | 0.00 | 20 | 1007.9 |
| 20260504022536 | 83 | 248 | 11.0 | 19.0 | 0.00 | 0.00 | 0.00 | 20 | 1007.8 |
| 20260504021517 | 84 | 248 | 14.0 | 21.0 | 0.00 | 0.00 | 0.00 | 19 | 1007.6 |
| 20260504020515 | 84 | 248 | 12.0 | 18.0 | 0.00 | 0.00 | 0.00 | 18 | 1007.4 |
| 20260504015516 | 85 | 248 | 8.0 | 15.0 | 0.00 | 0.00 | 0.00 | 17 | 1007.4 |
| 20260504014516 | 85 | 248 | 14.0 | 22.0 | 0.00 | 0.00 | 0.00 | 17 | 1007.3 |
| 20260504013539 | 86 | 248 | 13.0 | 28.0 | 0.00 | 0.00 | 0.00 | 15 | 1007.4 |
| 20260504012517 | 87 | 248 | 16.0 | 24.0 | 0.00 | 0.00 | 0.00 | 15 | 1007.3 |
| 20260504011515 | 88 | 225 | 10.0 | 20.0 | 0.00 | 0.00 | 0.00 | 14 | 1007.3 |
| 20260504010517 | 89 | 248 | 14.0 | 23.0 | 0.00 | 0.00 | 0.00 | 13 | 1007.4 |
| 20260504005515 | 90 | 248 | 16.0 | 21.0 | 0.00 | 0.00 | 0.00 | 12 | 1007.6 |
| 20260504004536 | 90 | 225 | 10.0 | 17.0 | 0.00 | 0.00 | 0.00 | 11 | 1007.6 |
| 20260504003515 | 90 | 248 | 14.0 | 25.0 | 0.00 | 0.00 | 0.00 | 11 | 1007.5 |
| 20260504002516 | 91 | 248 | 11.0 | 20.0 | 0.00 | 0.00 | 0.00 | 11 | 1007.5 |
| 20260504001515 | 92 | 248 | 13.0 | 23.0 | 0.00 | 0.00 | 0.00 | 10 | 1007.4 |
| 20260504000516 | 92 | 248 | 12.0 | 22.0 | 0.00 | 0.00 | 0.00 | 10 | 1007.3 |
| 20260503235536 | 93 | 248 | 11.0 | 25.0 | 0.00 | 0.00 | 0.00 | 10 | 1007.4 |
| 20260503234515 | 93 | 248 | 13.0 | 19.0 | 0.00 | 0.00 | 0.00 | 11 | 1007.3 |
| 20260503233515 | 93 | 248 | 14.0 | 22.0 | 0.00 | 0.00 | 0.00 | 10 | 1007.2 |
| 20260503232517 | 93 | 225 | 6.0 | 11.0 | 0.00 | 0.00 | 0.00 | 14 | 1007.3 |
| 20260503231515 | 93 | 158 | 6.0 | 13.0 | 0.00 | 0.00 | 0.00 | 14 | 1007.3 |
| 20260503230535 | 93 | 248 | 7.0 | 12.0 | 0.00 | 0.00 | 0.00 | 14 | 1007.4 |
| 20260503225515 | 94 | 158 | 5.0 | 9.0 | 0.00 | 0.00 | 0.00 | 16 | 1007.7 |
| 20260503224516 | 94 | 135 | 2.0 | 6.0 | 0.00 | 0.00 | 0.00 | 16 | 1008.0 |
| 20260503223518 | 93 | 225 | 6.0 | 11.0 | 0.00 | 0.00 | 0.00 | 16 | 1008.2 |
| 20260503222515 | 92 | 135 | 5.0 | 10.0 | 0.00 | 0.00 | 0.00 | 17 | 1008.3 |
| 20260503221536 | 92 | 270 | 4.0 | 8.0 | 0.00 | 0.00 | 0.00 | 17 | 1008.5 |
| 20260503220517 | 93 | 203 | 6.0 | 10.0 | 0.00 | 0.00 | 0.00 | 16 | 1008.8 |
| 20260503215515 | 94 | 203 | 7.0 | 14.0 | 0.00 | 0.00 | 0.00 | 16 | 1008.8 |
| 20260503214515 | 92 | 135 | 2.0 | 6.0 | 0.00 | 0.00 | 0.00 | 17 | 1008.9 |
| 20260503213515 | 91 | 135 | 5.0 | 10.0 | 0.00 | 0.00 | 0.00 | 17 | 1009.2 |
| 20260503212535 | 92 | 158 | 8.0 | 15.0 | 0.00 | 0.00 | 0.00 | 16 | 1009.4 |
| 20260503211515 | 92 | 248 | 5.0 | 9.0 | 0.00 | 0.00 | 0.00 | 17 | 1009.5 |
| 20260503210515 | 92 | 203 | 6.0 | 12.0 | 0.00 | 0.00 | 0.00 | 16 | 1009.8 |
| 20260503205515 | 92 | 180 | 7.0 | 18.0 | 0.00 | 0.00 | 0.00 | 16 | 1009.9 |
| 20260503204515 | 91 | 180 | 11.0 | 22.0 | 0.00 | 0.00 | 0.00 | 16 | 1010.0 |
| 20260503203536 | 91 | 203 | 8.0 | 15.0 | 0.00 | 0.00 | 0.00 | 17 | 1010.0 |
| 20260503202515 | 90 | 158 | 8.0 | 16.0 | 0.00 | 0.00 | 0.00 | 18 | 1010.1 |
| 20260503201515 | 90 | 158 | 7.0 | 15.0 | 0.00 | 0.00 | 0.00 | 18 | 1010.2 |
| 20260503200516 | 90 | 180 | 8.0 | 14.0 | 0.00 | 0.00 | 0.00 | 19 | 1010.2 |
| 20260503195519 | 90 | 203 | 9.0 | 17.0 | 0.00 | 0.00 | 0.00 | 19 | 1010.4 |
| 20260503194537 | 89 | 203 | 6.0 | 15.0 | 0.00 | 0.00 | 0.00 | 20 | 1010.5 |
| 20260503193517 | 90 | 203 | 6.0 | 12.0 | 0.00 | 0.00 | 0.00 | 18 | 1010.8 |
| 20260503192516 | 91 | 158 | 7.0 | 17.0 | 0.00 | 0.00 | 0.00 | 17 | 1010.9 |
| 20260503191515 | 89 | 158 | 8.0 | 15.0 | 0.00 | 0.00 | 0.00 | 19 | 1011.0 |
| 20260503190515 | 89 | 158 | 6.0 | 12.0 | 0.00 | 0.00 | 0.00 | 20 | 1011.2 |
| 20260503185535 | 88 | 225 | 7.0 | 13.0 | 0.00 | 0.00 | 0.00 | 19 | 1011.0 |
| 20260503184515 | 89 | 180 | 6.0 | 13.0 | 0.00 | 0.00 | 0.00 | 20 | 1011.1 |
| 20260503183515 | 88 | 180 | 6.0 | 14.0 | 0.00 | 0.00 | 0.00 | 19 | 1011.1 |
| 20260503182515 | 89 | 180 | 6.0 | 10.0 | 0.00 | 0.00 | 0.00 | 20 | 1011.4 |
| 20260503181515 | 88 | 248 | 4.0 | 7.0 | 0.00 | 0.00 | 0.00 | 21 | 1011.5 |
| 20260503180535 | 88 | 180 | 6.0 | 12.0 | 0.00 | 0.00 | 0.00 | 21 | 1011.7 |
| 20260503175515 | 88 | 135 | 3.0 | 8.0 | 0.00 | 0.00 | 0.00 | 22 | 1011.6 |
| 20260503174517 | 88 | 135 | 4.0 | 8.0 | 0.00 | 0.00 | 0.00 | 22 | 1011.9 |
| 20260503173515 | 88 | 180 | 3.0 | 10.0 | 0.00 | 0.00 | 0.00 | 22 | 1012.0 |